Вернуться в каталог

STARLINK-33625

АктивенСвязьVLEO
NORAD 63327·PAYLOAD·🇺🇸 United States

Запущен Mar 18, 2025 с Cape Canaveral Space Force Station

Loading…

Ближайшие Пролёты (ближайшие 24 часа)

TLE

СвежийSource: CelesTrak SupGP

Эпоха: Sep 15, 2026, 03:03 UTC

1 63327C 25057W   26258.12756944 -.00009635  00000+0 -34888-3 0  2587
2 63327  43.0046  33.3987 0001538 267.9260 227.6767 15.27590939    10

Отслеживайте STARLINK-33625 в реальном времени с AllMySat

Download on the App Store